OBJECT P, 67261

Orbit data source: Space-Track

You're viewing an Uncataloged Satellite

Recently launched and/or uncataloged satellites may have evolving metadata. Metadata may include but not limited to: Owner, Maufacturer, Bus, Motor, and Mission.

OBJECT P, 67261 is a satellite in SSO that was launched on Sun, 28 Dec 2025 UTC via a SOYUZ-2-1B launch vehicle from the Vostochny Cosmodrome (VOSTO). Unknown objects in Earth's orbit typically refer to objects detected orbiting the Earth but have not yet been identified or cataloged. These objects could be anything from previously untracked satellites, spent rocket stages, debris from satellite collisions, or even natural meteoroids temporarily captured by Earth's gravity.

Loading next visibility...
Identifier
67261, 2025-313P
Orbit
SSO
Country
Flag of TBDTBD
Related business
None
Manufacturer
Unknown
Mission
Operational Commercial Technology
Bus & Motor
Unknown
Mass
Unknown
Launch date (UTC)
2025-12-28 (6 months ago)
Launch vehicle
SOYUZ-2-1B
Launch site
Vostochny Cosmodrome (VOSTO)
Object type
Unknown
Shape & HBR
Box, 0.1 m
Radar Cross Section
0.035 m², Medium (>0.1 m² and < 1m²)

Expand to show TLE details & history
Last TLE update: 1 day ago

TLE from 1 day ago
0 OBJECT P
1 67261U 25313P   26170.43870357  .00014383  00000-0  55320-3 0  9996
2 67261  97.3964 245.5783 0012630 357.3037   2.8131 15.26432946 26326
Epoch: 2026-06-19T10:31Z
TLE epoch observation values (Epoch: 2026-06-19T10:31:43.988Z)
Latitude
-0.00006°
Longitude
179.97735°
Altitude
480.924 km
Speed
7.63 km/s
True Right ascension
16h 22m 18s
True Declination
0° 00' 00"
Sunlit
Object was in full shadow at epoch
Visualization orbit readout
Latitude
Unknown
Longitude
Unknown
Altitude
Unknown
Speed
Unknown
Apparent Right ascension
Unknown
Apparent Declination
Unknown
Sunlit
N/A
Visualization observer readout
Local Sidereal Time
07:18:38
Azimuth
Unknown
Elevation
Unknown
Doppler factor
Unknown
Orbital elements
Apogee altitude
492.109 km
Perigee altitude
474.777 km
Semi-major axis
6,861.58 km
Eccentricity
0.00126
Inclination
97.3964°
RAAN
245.5783°
Arg. of periapsis
357.3037°
True anomaly
2.82021°
Mean anomaly
2.8131°
Eccentric anomaly
2.81666°
Mean motion
3.81862 °/min
Orbital period
94.27 mins
BSTAR
0.0005532
Loading maneuver chart data...
Computing Atmospheric mass density...
Loading historical data...
Loading historical data...
Loading historical data...
Loading historical data...
Loading historical data...
Loading historical data...
Loading historical data...

Documentation

Showing up to 5 results
|